Weather History for Three Rivers, MI

Change the Weather History Date:

Sunday, December 1, 2013

  Actual Average Record
Temperature  
Mean Temperature 35 °F -  
Max Temperature 44 °F 41 °F 60 °F (1962)
Min Temperature 26 °F 26 °F 5 °F (1955)
Degree Days  
Heating Degree Days 30    
Moisture  
Dew Point 29 °F    
Average Humidity 75    
Maximum Humidity 91    
Minimum Humidity 58    
Precipitation  
Precipitation 0.00 in - - ()
Sea Level Pressure  
Sea Level Pressure 30.03 in    
Wind  
Wind Speed 4 mph (West)    
Max Wind Speed 8 mph    
Max Gust Speed -    
Visibility 8 miles    
Events      
Averages and records for this station are not official NWS values.
T = Trace of Precipitation, MM = Missing Value Source: NWS Daily Summary

Daily Weather History Graph

Daily Weather History Graph

Search for Another Location

Airport:

Trip Planner

Search our weather history database for the weather conditions in past years. The results will help you decide how hot, cold, wet, or windy it might be!

Date:

Astronomy

Dec. 01, 2013 Rise Set
Actual Time 7:50 AM EST 5:11 PM EST
Civil Twilight 7:19 AM EST 5:43 PM EST
Nautical Twilight 6:45 AM EST 6:17 PM EST
Astronomical Twilight 6:11 AM EST 6:51 PM EST
Moon 6:07 AM EST (12/1) 4:22 PM EST (12/1)
Length of Visible Light 10h 23m
Length of Day
9h 20m
Waning Crescent, 2% of the Moon is Illuminated
Dec 1
Waning Crescent
Dec 2
New
Dec 9
First Quarter
Dec 17
Full
Dec 25
Last Quarter

Hourly Weather History & Observations

Time (EST) Temp. Windchill Dew Point Humidity Pressure Visibility Wind Dir Wind Speed Gust Speed Precip Events Conditions
12:15 AM 36.7 °F 32.0 °F 29.1 °F 74% 30.08 in 10.0 mi South 5.8 mph - N/A   Overcast
12:34 AM 36.5 °F 31.8 °F 29.3 °F 75% 30.07 in 10.0 mi SSW 5.8 mph - N/A   Overcast
12:55 AM 37.4 °F 32.8 °F 29.5 °F 73% 30.06 in 10.0 mi SSW 5.8 mph - N/A   Overcast
1:15 AM 38.3 °F 33.9 °F 29.8 °F 72% 30.06 in 10.0 mi SSW 5.8 mph - N/A   Overcast
1:34 AM 38.3 °F 33.9 °F 29.8 °F 72% 30.05 in 10.0 mi SSW 5.8 mph - N/A   Overcast
1:55 AM 38.3 °F 33.9 °F 29.7 °F 71% 30.04 in 10.0 mi SW 5.8 mph - N/A   Overcast
2:15 AM 40.5 °F 37.3 °F 29.3 °F 64% 30.04 in 10.0 mi SW 4.6 mph - N/A   Overcast
2:34 AM 41.0 °F 35.8 °F 29.3 °F 63% 30.04 in 10.0 mi WSW 8.1 mph - N/A   Overcast
2:55 AM 41.4 °F 38.4 °F 29.3 °F 62% 30.04 in 10.0 mi SW 4.6 mph - N/A   Overcast
3:15 AM 39.0 °F 34.8 °F 29.3 °F 68% 30.04 in 10.0 mi SSW 5.8 mph - N/A   Scattered Clouds
3:35 AM 38.3 °F 35.9 °F 29.5 °F 71% 30.04 in 10.0 mi South 3.5 mph - N/A   Clear
3:55 AM 36.3 °F - 29.3 °F 76% 30.03 in 10.0 mi Calm Calm - N/A   Clear
4:14 AM 35.4 °F 32.6 °F 29.1 °F 78% 30.03 in 10.0 mi SSW 3.5 mph - N/A   Clear
4:35 AM 35.2 °F - 29.1 °F 78% 30.03 in 10.0 mi Calm Calm - N/A   Clear
4:55 AM 34.2 °F 31.2 °F 28.9 °F 81% 30.03 in 10.0 mi SSW 3.5 mph - N/A   Clear
5:14 AM 33.8 °F 29.6 °F 28.6 °F 81% 30.03 in 10.0 mi SSW 4.6 mph - N/A   Clear
5:35 AM 33.3 °F 28.9 °F 28.9 °F 84% 30.04 in 10.0 mi SSW 4.6 mph - N/A   Mostly Cloudy
5:54 AM 34.0 °F 31.0 °F 29.3 °F 83% 30.04 in 10.0 mi SSW 3.5 mph - N/A   Overcast
6:15 AM 33.8 °F 30.8 °F 29.1 °F 83% 30.04 in 10.0 mi SSW 3.5 mph - N/A   Overcast
6:35 AM 34.0 °F 31.0 °F 29.3 °F 83% 30.04 in 10.0 mi SSW 3.5 mph - N/A   Overcast
6:54 AM 33.8 °F 30.8 °F 29.3 °F 84% 30.04 in 10.0 mi SSW 3.5 mph - N/A   Overcast
7:15 AM 33.6 °F 29.4 °F 29.3 °F 84% 30.04 in 10.0 mi SSW 4.6 mph - N/A   Overcast
7:35 AM 34.9 °F - 29.5 °F 81% 30.04 in 10.0 mi Calm Calm - N/A   Overcast
7:54 AM 33.8 °F 30.8 °F 29.5 °F 84% 30.04 in 10.0 mi South 3.5 mph - N/A   Overcast
8:15 AM 33.8 °F 30.8 °F 29.8 °F 85% 30.04 in 10.0 mi SSW 3.5 mph - N/A   Overcast
8:35 AM 33.8 °F - 30.2 °F 87% 30.05 in 10.0 mi Calm Calm - N/A   Overcast
8:54 AM 33.8 °F - 30.2 °F 87% 30.05 in 10.0 mi Calm Calm - N/A   Scattered Clouds
9:15 AM 34.7 °F - 31.1 °F 87% 30.05 in 10.0 mi Calm Calm - N/A   Clear
9:34 AM 35.1 °F - 31.5 °F 87% 30.06 in 10.0 mi Calm Calm - N/A   Clear
9:55 AM 37.2 °F - 32.0 °F 81% 30.06 in 10.0 mi Calm Calm - N/A   Clear
10:15 AM 39.0 °F 36.8 °F 33.1 °F 79% 30.07 in 7.0 mi NW 3.5 mph - N/A   Mostly Cloudy
10:34 AM 39.6 °F 36.3 °F 33.8 °F 80% 30.07 in 7.0 mi NW 4.6 mph - N/A   Scattered Clouds
10:55 AM 39.9 °F 36.7 °F 33.8 °F 79% 30.07 in 7.0 mi NW 4.6 mph - N/A   Clear
11:15 AM 40.5 °F 36.5 °F 34.0 °F 78% 30.07 in 7.0 mi NW 5.8 mph - N/A   Clear
11:35 AM 41.4 °F 36.8 °F 33.3 °F 73% 30.06 in 7.0 mi NNW 6.9 mph - N/A   Scattered Clouds
11:55 AM 41.0 °F 35.8 °F 32.5 °F 72% 30.05 in 7.0 mi NNW 8.1 mph - N/A   Scattered Clouds
12:14 PM 42.8 °F 39.3 °F 33.3 °F 69% 30.04 in 7.0 mi NNW 5.8 mph - N/A   Mostly Cloudy
12:35 PM 42.3 °F 37.9 °F 32.0 °F 67% 30.03 in 10.0 mi North 6.9 mph - N/A   Mostly Cloudy
12:55 PM 43.2 °F 39.7 °F 31.3 °F 63% 30.03 in 10.0 mi North 5.8 mph - N/A   Scattered Clouds
1:14 PM 43.9 °F 41.3 °F 31.8 °F 63% 30.02 in 10.0 mi NNW 4.6 mph - N/A   Scattered Clouds
1:35 PM 42.4 °F 38.8 °F 31.3 °F 65% 30.02 in 7.0 mi NNW 5.8 mph - N/A   Clear
1:55 PM 44.2 °F 39.7 °F 31.6 °F 61% 30.01 in 7.0 mi North 8.1 mph - N/A   Clear
2:14 PM 43.9 °F 41.3 °F 31.5 °F 62% 30.01 in 7.0 mi NNW 4.6 mph - N/A   Scattered Clouds
2:35 PM 42.6 °F 39.9 °F 31.6 °F 65% 30.01 in 5.0 mi NNW 4.6 mph - N/A   Haze
2:54 PM 43.0 °F 40.3 °F 31.1 °F 63% 30.01 in 7.0 mi North 4.6 mph - N/A   Mostly Cloudy
3:15 PM 42.4 °F 39.6 °F 30.7 °F 63% 30.01 in 10.0 mi North 4.6 mph - N/A   Scattered Clouds
3:35 PM 43.0 °F 38.2 °F 30.0 °F 60% 30.00 in 10.0 mi NNW 8.1 mph - N/A   Clear
3:54 PM 42.8 °F 39.3 °F 28.8 °F 58% 30.00 in 10.0 mi NNW 5.8 mph - N/A   Clear
4:15 PM 42.3 °F 38.6 °F 28.4 °F 58% 30.00 in 10.0 mi North 5.8 mph - N/A   Clear
4:35 PM 41.9 °F 40.0 °F 28.0 °F 58% 30.01 in 10.0 mi NNW 3.5 mph - N/A   Clear
4:54 PM 40.5 °F 37.3 °F 28.0 °F 61% 30.01 in 10.0 mi NNW 4.6 mph - N/A   Clear
5:15 PM 38.8 °F 36.5 °F 27.5 °F 64% 30.02 in 10.0 mi NNW 3.5 mph - N/A   Clear
5:35 PM 38.8 °F 36.5 °F 27.5 °F 64% 30.02 in 10.0 mi NW 3.5 mph - N/A   Scattered Clouds
5:55 PM 35.6 °F - 26.6 °F 70% 30.02 in 10.0 mi Calm Calm - N/A   Scattered Clouds
6:15 PM 37.2 °F 34.7 °F 27.5 °F 68% 30.02 in 3.0 mi North 3.5 mph - N/A   Haze
6:34 PM 35.6 °F 32.8 °F 27.3 °F 72% 30.02 in 10.0 mi North 3.5 mph - N/A   Clear
6:55 PM 35.6 °F - 26.6 °F 70% 30.01 in 7.0 mi Calm Calm - N/A   Clear
7:15 PM 34.0 °F - 26.4 °F 74% 30.01 in 10.0 mi Calm Calm - N/A   Clear
7:34 PM 33.6 °F - 27.3 °F 78% 30.02 in 10.0 mi Calm Calm - N/A   Clear
7:55 PM 32.4 °F - 26.8 °F 80% 30.02 in 7.0 mi Calm Calm - N/A   Clear
8:15 PM 29.5 °F - 24.3 °F 81% 30.02 in 7.0 mi Calm Calm - N/A   Clear
8:34 PM 29.8 °F - 24.8 °F 81% 30.02 in 7.0 mi Calm Calm - N/A   Clear
8:55 PM 29.7 °F - 25.2 °F 83% 30.01 in 7.0 mi Calm Calm - N/A   Scattered Clouds
9:15 PM 30.0 °F - 25.9 °F 85% 30.02 in 4.0 mi Calm Calm - N/A   Clear
9:34 PM 29.5 °F - 25.7 °F 86% 30.02 in 7.0 mi Calm Calm - N/A   Clear
9:55 PM 28.0 °F - 25.3 °F 90% 30.02 in 5.0 mi Calm Calm - N/A   Clear
10:14 PM 27.1 °F - 24.4 °F 90% 30.01 in 4.0 mi Calm Calm - N/A   Clear
10:35 PM 28.0 °F 24.2 °F 25.2 °F 89% 30.01 in 5.0 mi WNW 3.5 mph - N/A   Clear
10:55 PM 27.1 °F - 24.3 °F 89% 30.00 in 5.0 mi Calm Calm - N/A   Clear
11:14 PM 26.6 °F - 23.7 °F 89% 30.00 in 5.0 mi Calm Calm - N/A   Clear
11:35 PM 26.6 °F - 24.3 °F 91% 30.00 in 5.0 mi Calm Calm - N/A   Clear
11:55 PM 26.4 °F - 23.9 °F 90% 30.00 in 4.0 mi Calm Calm - N/A   Clear